355P/LINEAR-NEAT (2017)

Japanese version
Home page
Updated on February 13, 2018

---------------------------------------------------------------------

* Profile

Designation 355P/2017 M2
Recovery Date June 21, 2017
Magnitude 19.6 mag
Recoverer Erwin Schwab (Egelsbach, Germany), Pablo Ruiz (European Space Agency's Optical Ground Station, Tenerife)

* Pictures

* Orbital Elements

Epoch 2017 Oct. 14.0 TT = JDT 2458040.5
T 2017 Oct. 12.67997 TT                                 MPCW
q   1.7159745            (2000.0)            P               Q
n   0.15204336     Peri.  336.33720     +0.87879202     -0.45312264
a   3.4766242      Node    51.46124     +0.46267004     +0.73220322
e   0.5064251      Incl.   11.03231     +0.11688037     +0.50848630
P   6.48
From 739 observations 2004 July 16-2018 Jan. 23, mean residual 0".6.

* Finding Charts

* Magnitudes Graph

        m1 = 10.0 + 5 log d + 25.0 log r(t - 25)

---------------------------------------------------------------------

The orbital elements are published on M.P.E.C. 2018-B155.
The charts are made with StellaNavigator Ver.10 (AstroArts).
The magnitudes graphs are made with Comet for Windows.

---------------------------------------------------------------------

Copyright(C) Seiichi Yoshida (comet@aerith.net). All rights reserved.